Weather History for KGLD - January, 2014

Change the Weather History Date:

Wednesday, January 1, 2014

  Actual Average Record
Temperature  
Mean Temperature 30 °F 30 °F  
Max Temperature 38 °F 42 °F 70 °F (1997)
Min Temperature 22 °F 17 °F -15 °F (1928)
Degree Days  
Heating Degree Days 35 36  
Month to date heating degree days 35 36  
Since 1 July heating degree days 2401 2443  
Cooling Degree Days 0 0  
Month to date cooling degree days 0 0  
Year to date cooling degree days 0 0  
Moisture  
Dew Point 20 °F    
Average Humidity 68    
Maximum Humidity 92    
Minimum Humidity 44    
Precipitation  
Precipitation T in 0.01 in 0.24 in (1976)
Month to date precipitation T 0.01  
Year to date precipitation T 0.01  
Snow  
Snow T in 0.20 in - ()
Month to date snowfall T 0.2  
Since 1 July snowfall 6.8 12.9  
Snow Depth T in    
Sea Level Pressure  
Sea Level Pressure 30.18 in    
Wind  
Wind Speed 11 mph (North)    
Max Wind Speed 24 mph    
Max Gust Speed 28 mph    
Visibility 9 miles    
Events Snow    
T = Trace of Precipitation, MM = Missing Value Source: NWS Daily Summary

Daily Weather History Graph

Daily Weather History Graph

Search for Another Location

Airport or City:

Trip Planner

Search our weather history database for the weather conditions in past years. The results will help you decide how hot, cold, wet, or windy it might be!

Date:

Astronomy

Jan. 01, 2014 Rise Set
Actual Time 7:06 AM MST 4:34 PM MST
Civil Twilight 6:36 AM MST 5:04 PM MST
Nautical Twilight 6:03 AM MST 5:37 PM MST
Astronomical Twilight 5:30 AM MST 6:10 PM MST
Moon 6:59 AM MST (1/1) 5:21 PM MST (1/1)
Length of Visible Light 10h 27m
Length of Day
9h 27m
New Moon, 0% of the Moon is Illuminated
Jan 1
New Moon
Jan 7
First Quarter
Jan 15
Full
Jan 23
Last Quarter
Jan 30
New

Hourly Weather History & Observations

Time (MST) Temp. Windchill Dew Point Humidity Pressure Visibility Wind Dir Wind Speed Gust Speed Precip Events Conditions
12:53 AM 30.0 °F 23.2 °F 16.0 °F 56% 29.88 in 10.0 mi South 6.9 mph - N/A   Clear
1:53 AM 24.1 °F - 14.0 °F 65% 29.88 in 10.0 mi Calm Calm - N/A   Clear
2:53 AM 28.0 °F 24.2 °F 16.0 °F 61% 29.88 in 10.0 mi North 3.5 mph - N/A   Overcast
3:53 AM 34.0 °F 24.2 °F 19.9 °F 56% 29.93 in 10.0 mi North 15.0 mph - N/A   Overcast
4:53 AM 30.0 °F 26.5 °F 19.9 °F 66% 29.95 in 10.0 mi North 3.5 mph - N/A   Mostly Cloudy
5:53 AM 28.9 °F 20.4 °F 19.9 °F 69% 29.97 in 10.0 mi NE 9.2 mph - N/A   Overcast
6:53 AM 27.0 °F 20.5 °F 19.0 °F 72% 30.03 in 10.0 mi NW 5.8 mph - N/A   Overcast
7:53 AM 28.9 °F 22.8 °F 23.0 °F 78% 30.03 in 10.0 mi NNE 5.8 mph - 0.00 in   Overcast
8:12 AM 30.9 °F 23.5 °F 23.0 °F 72% 29.99 in 10.0 mi North 8.1 mph - N/A   Overcast
8:53 AM 28.0 °F 14.9 °F 19.9 °F 72% 30.09 in 10.0 mi NE 19.6 mph - N/A   Overcast
9:43 AM 23.0 °F 9.6 °F 17.1 °F 78% 30.11 in 9.0 mi NNE 16.1 mph - N/A   Overcast
9:53 AM 23.0 °F 8.7 °F 17.1 °F 78% 30.17 in 8.0 mi NNE 18.4 mph - N/A   Overcast
10:05 AM 24.1 °F 11.0 °F 18.0 °F 77% 30.12 in 8.0 mi North 16.1 mph - N/A   Overcast
10:53 AM 24.1 °F 9.4 °F 19.0 °F 81% 30.19 in 2.0 mi North 20.7 mph - 0.00 in Snow Light Snow
11:08 AM 24.1 °F 9.4 °F 19.0 °F 81% 30.13 in 6.0 mi North 20.7 mph - 0.00 in   Haze
11:37 AM 26.1 °F 12.7 °F 19.0 °F 75% 30.14 in 10.0 mi North 18.4 mph - 0.00 in   Overcast
11:53 AM 25.0 °F 11.3 °F 19.0 °F 78% 30.20 in 6.0 mi North 18.4 mph - 0.00 in   Haze
12:12 PM 27.0 °F 13.9 °F 19.0 °F 72% 30.14 in 10.0 mi NNE 18.4 mph 25.3 mph N/A   Overcast
12:44 PM 28.9 °F 16.9 °F 19.9 °F 69% 30.13 in 10.0 mi North 17.3 mph - N/A   Overcast
12:53 PM 28.0 °F 15.7 °F 19.9 °F 72% 30.21 in 10.0 mi North 17.3 mph - N/A   Overcast
1:42 PM 28.0 °F 15.7 °F 19.9 °F 72% 30.15 in 10.0 mi North 17.3 mph - N/A   Mostly Cloudy
1:53 PM 28.0 °F 15.7 °F 19.9 °F 72% 30.25 in 10.0 mi North 17.3 mph - N/A   Mostly Cloudy
2:05 PM 30.0 °F 19.1 °F 21.0 °F 69% 30.16 in 10.0 mi North 15.0 mph - N/A   Scattered Clouds
2:53 PM 30.9 °F 19.4 °F 21.0 °F 67% 30.26 in 10.0 mi North 17.3 mph 23.0 mph N/A   Clear
3:53 PM 28.9 °F 17.7 °F 21.0 °F 72% 30.28 in 10.0 mi North 15.0 mph - N/A   Scattered Clouds
4:53 PM 28.0 °F 16.1 °F 24.1 °F 85% 30.33 in 2.5 mi North 16.1 mph - 0.00 in Snow Light Snow
5:01 PM 28.0 °F 15.7 °F 24.1 °F 85% 30.26 in 4.0 mi North 17.3 mph - 0.00 in Snow Light Snow
5:53 PM 25.0 °F 14.2 °F 23.0 °F 92% 30.38 in 10.0 mi North 11.5 mph - 0.00 in   Overcast
6:53 PM 25.0 °F 16.3 °F 23.0 °F 92% 30.41 in 10.0 mi NNW 8.1 mph - N/A   Overcast
7:53 PM 25.0 °F 17.1 °F 21.9 °F 88% 30.42 in 10.0 mi NNW 6.9 mph - N/A   Overcast
8:09 PM 25.0 °F 17.1 °F 21.9 °F 88% 30.33 in 10.0 mi NW 6.9 mph - N/A   Overcast
8:53 PM 26.1 °F 18.4 °F 21.9 °F 84% 30.41 in 10.0 mi WNW 6.9 mph - N/A   Overcast
9:21 PM 26.1 °F 19.4 °F 23.0 °F 88% 30.32 in 10.0 mi West 5.8 mph - N/A   Overcast
9:53 PM 26.1 °F 16.8 °F 23.0 °F 88% 30.42 in 10.0 mi WSW 9.2 mph - N/A   Overcast
10:53 PM 23.0 °F 12.4 °F 19.9 °F 88% 30.41 in 10.0 mi West 10.4 mph - N/A   Partly Cloudy
11:53 PM 21.9 °F 11.0 °F 19.0 °F 89% 30.40 in 10.0 mi WSW 10.4 mph - N/A   Clear